Regional Weather Roundup
Issued by NWS

Home | Current Version | Previous Version | Graphics & Text | Print | Product List | Glossary On
Versions: 1 2 3 4 5 6 7 8 9 10 11 12 13 14 15 16 17 18 19 20 21 22 23 24 25 26 27 28 29 30 31 32 33 34 35 36 37 38 39 40 41 42 43 44 45 46 47 48 49 50
000
ASUS45 KCYS 211010
RWRWY

WYOMING REGIONAL WEATHER ROUNDUP
NATIONAL WEATHER SERVICE CHEYENNE WY
300 AM MST TUE NOV 21 2017

NOTE:  "FAIR" INDICATES FEW OR NO CLOUDS BELOW 12,000 FEET
WITH NO SIGNIFICANT WEATHER AND/OR OBSTRUCTIONS TO VISIBILITY.

WYZ001-211100-
YELLOWSTONE NATIONAL PARK

CITY           SKY/WX    TMP DP  RH WIND       PRES   REMARKS
LK YELLOWSTONE   N/A     29  28  96 CALM      30.16R
W YELLOWSTONE  NOT AVBL

$$
WYZ002>013-054>058-071-098>099-211100-
NORTHERN WYOMING

CITY           SKY/WX    TMP DP  RH WIND       PRES   REMARKS
JACKSON        FLURRIES  37  36  96 SW13      30.12R WCI  29
CODY           CLOUDY    32  29  88 N10       30.12R WCI  24
GREYBULL       MOCLDY    36  32  85 W12       30.07R WCI  28
WORLAND        CLOUDY    32  28  85 S7        30.06R WCI  26
SHERIDAN       LGT SNOW  27  25  92 NE6       30.18R FOG     WCI  20
BUFFALO        CLOUDY    27  23  85 N16       30.12R WCI  15
GILLETTE       CLOUDY    24  22  91 N7        30.12R WCI  16
HULETT         LGT SNOW  27  23  86 NW6       30.14R WCI  20
NEWCASTLE      PTSUNNY   32  23  69 NW12G24   30.05R WCI  23

$$
WYZ014>020-022>026-101>103-211100-
CENTRAL WYOMING

CITY           SKY/WX    TMP DP  RH WIND       PRES   REMARKS
BIG PINEY      CLOUDY    29  28  96 NE5       30.16R WCI  24
PINEDALE       LGT SNOW  32  32 100 CALM      30.16R
DUBOIS         LGT RAIN  34  32  93 NW14      30.07R WCI  24
LANDER           N/A     35  26  69 SE6       30.03R WCI  30
RIVERTON       CLOUDY    38  32  79 E3        30.05R
CASPER         FAIR      33  27  78 N7        30.07R WCI  27
DOUGLAS        CLOUDY    36  27  69 NW8       30.05R WCI  30

$$
WYZ021-027>030-104>119-211100-
SOUTHERN WYOMING

CITY           SKY/WX    TMP DP  RH WIND       PRES   REMARKS
EVANSTON       LGT RAIN  38  35  89 SW13      30.25R WCI  30
KEMMERER       PTSUNNY   34  32  93 W24G31    30.17R WCI  21
FORT BRIDGER   PTSUNNY   39  37  94 W23G30    30.22R WCI  28
ROCK SPRINGS   FAIR      37  32  82 W21G30    30.15R WCI  26
DIXON          CLOUDY    38  26  60 SW9       30.18S WCI  32
RAWLINS        FLURRIES  38  32  79 W26G32    30.09R WCI  26
SARATOGA       CLOUDY    36  32  87 W16G28    30.11R WCI  26
LARAMIE        CLOUDY    36  29  75 W13       30.05R WCI  27
CHEYENNE       FAIR      42  30  62 W22G28    30.00R
TORRINGTON     FAIR      42  27  55 N18       30.00R
PINE BLUFFS    FAIR      46  30  53 MISG      29.98R

$$



USA.gov is the U.S. government's official web portal to all federal, state and local government web resources and services.